Wind_Speed
21 23 23 24 24 25 25 25 23 19 17 16 18 24 27 23 27 27 25 23 18 15 13 10 8 8 9 6 5 4 4 5 7 13 14 12 21 28 24 27 34 34 38 26 29 21 28
19 21 22 23 24 25 25 25 25 21 18 16 16 20 26 24 25 27 24 21 19 15 13 11 12 10 12 11 9 11 8 6 8 12 15 15 13 27 25 23 37 37 26 25 15 14 24
17 19 20 22 23 24 25 25 25 23 20 15 15 17 19 26 23 28 27 20 17 17 17 14 15 20 14 13 12 8 6 3 6 11 13 14 10 18 23 27 34 18 22 13 18 23 34
16 17 19 20 22 23 23 25 24 25 21 16 13 14 14 18 22 28 29 25 16 13 13 14 18 14 18 15 16 3 6 1 4 12 11 14 12 13 24 22 33 26 17 17 18 26 36
15 16 17 19 21 22 23 24 24 25 23 20 14 11 11 12 16 22 30 22 29 21 13 15 14 17 19 23 13 9 7 13 18 12 19 16 16 15 9 26 24 25 21 20 20 26 32
14 15 16 18 20 21 22 23 24 23 25 22 18 12 10 10 12 17 21 22 27 33 31 22 24 13 30 29 29 21 29 22 15 17 21 24 22 13 20 22 15 21 22 23 22 24 28
13 14 15 17 19 21 22 23 23 23 24 23 20 15 12 9 9 11 17 18 24 27 30 32 30 29 29 21 21 17 21 16 18 21 18 16 22 20 24 6 17 18 16 22 18 24 29
12 14 15 16 18 20 22 23 23 23 23 23 21 17 12 10 8 9 11 15 20 21 25 26 23 20 22 23 23 20 19 20 19 12 10 16 14 18 14 8 19 17 13 15 12 23 22
11 13 14 15 17 19 20 22 23 23 22 23 21 17 11 13 9 8 8 7 9 13 16 21 19 20 18 19 21 19 15 17 11 8 11 13 14 10 6 5 12 14 19 22 21 25 20
11 12 14 15 16 18 19 21 22 22 22 23 21 18 12 9 11 11 9 5 5 6 7 16 14 14 13 13 18 15 16 13 13 16 9 11 11 10 4 11 17 7 24 26 23 26 24
12 12 14 15 15 17 19 20 22 22 21 21 21 19 14 9 9 8 9 9 7 5 5 10 13 12 15 16 14 18 10 9 10 10 8 10 8 8 9 19 4 12 17 19 27 22 15
11 13 13 15 15 16 17 19 20 21 20 19 19 18 14 8 7 7 7 8 6 4 4 7 12 10 11 12 11 10 16 14 12 15 15 12 6 9 14 12 12 15 14 19 23 12 3
10 13 14 14 15 15 16 18 19 20 18 17 17 17 15 11 6 6 7 6 4 6 1 6 9 13 12 14 11 11 12 10 13 11 13 10 13 12 11 13 13 23 24 7 2 1 4
11 12 15 16 16 15 14 16 18 19 17 15 15 16 15 13 8 5 5 6 4 6 7 5 8 9 12 11 16 10 9 10 12 11 6 2 6 10 10 9 10 9 7 4 5 4 4
12 13 14 16 17 15 15 15 16 18 17 14 13 14 14 13 12 7 4 3 2 2 3 3 3 8 8 7 7 7 11 12 6 4 5 3 5 12 10 8 6 4 3 3 5 5 3
16 14 14 15 17 16 15 14 14 16 16 14 11 11 12 12 12 11 6 3 2 2 2 3 3 5 7 8 4 2 5 9 9 6 3 6 5 8 9 7 5 4 2 2 3 3 1
18 18 16 15 16 17 15 13 14 14 15 13 11 10 10 11 10 10 6 5 4 4 4 3 4 3 4 4 6 5 4 7 7 7 6 4 4 6 5 2 4 3 2 3 4 3 3
22 20 19 17 16 17 16 14 12 13 14 13 10 9 8 8 10 7 5 3 3 4 4 3 4 5 4 3 5 4 4 3 4 5 6 6 6 4 3 3 2 1 2 2 3 3 4
26 24 22 20 18 18 17 15 13 12 12 13 10 9 9 7 6 7 5 3 3 3 2 3 3 4 5 5 3 5 4 5 4 3 2 3 4 6 3 3 3 3 1 1 2 2 3
31 29 25 23 21 19 18 16 15 13 12 12 11 7 9 9 5 5 7 7 4 2 2 2 2 3 2 6 5 4 4 5 4 4 3 1 1 0 0 2 4 3 3 4 6 5 8
37 33 30 27 26 23 20 19 17 15 13 13 12 9 8 8 9 7 7 8 6 5 4 3 2 3 3 3 3 4 5 6 5 5 6 5 1 1 3 5 8 9 9 11 13 11 9
42 38 34 30 29 27 24 22 20 18 15 14 15 13 11 11 12 11 9 8 9 8 7 7 6 5 5 5 4 6 7 6 2 6 9 8 4 9 6 5 8 13 13 15 17 18 19
47 43 39 36 33 31 27 26 24 21 19 18 17 17 15 14 13 14 13 11 10 10 10 10 9 9 8 8 7 9 9 9 11 12 13 11 8 12 4 9 16 7 5 6 6 8 8
51 48 44 40 37 35 33 29 27 25 22 21 20 20 19 18 16 16 15 15 13 13 14 12 11 11 10 10 11 12 12 11 12 15 16 15 12 9 8 14 3 4 8 9 7 9 14
56 52 48 44 42 39 37 34 31 29 26 24 23 22 22 22 19 19 16 17 17 17 16 15 14 14 13 12 12 9 10 12 9 12 11 11 11 4 3 3 13 16 16 12 9 9 11
61 56 52 48 46 44 41 38 34 33 30 27 26 25 25 23 24 22 21 19 19 19 19 18 16 15 15 14 11 6 4 6 5 5 6 7 8 10 6 3 5 6 10 10 14 18 20
64 61 56 53 50 48 45 42 37 35 34 31 29 28 27 26 25 25 23 21 21 22 22 20 19 18 18 16 15 13 12 14 7 7 6 8 8 15 15 8 9 18 19 19 10 11 12
65 63 60 56 53 50 48 44 41 38 36 34 31 31 29 27 27 25 25 24 23 24 23 22 20 21 19 19 15 13 12 12 12 12 9 9 6 6 7 8 10 11 13 11 14 17 20
63 62 61 57 54 51 49 46 42 40 38 35 34 32 31 29 23 23 25 27 29 27 24 24 26 24 16 14 13 10 11 10 12 9 15 13 15 11 14 7 14 18 21 24 25 28 31
Wind_Direction
29 29 24 23 22 21 18 19 16 11 7 6 10 19 21 26 26 27 29 34 41 33 27 34 41 21 353 344 336 316 254 233 203 196 191 201 204 205 189 197 189 200 210 188 191 212 201
26 27 22 20 19 19 18 17 15 13 7 1 1 15 25 25 30 33 31 35 36 39 38 33 34 20 6 6 11 6 242 229 203 202 193 199 202 211 227 193 188 202 190 199 204 204 201
23 25 21 20 18 16 17 15 14 13 8 358 357 10 25 31 35 31 29 30 41 40 42 38 35 24 28 19 353 7 61 183 221 202 200 192 177 217 197 207 186 187 189 201 202 176 170
21 21 20 21 18 17 15 14 14 12 9 2 355 8 16 23 32 34 30 34 26 26 27 29 30 20 18 14 18 32 24 324 183 196 198 195 205 193 190 151 173 183 202 212 197 165 183
18 19 19 19 18 16 15 12 12 12 9 7 358 0 9 13 13 20 31 42 42 33 28 35 34 20 22 42 53 50 54 96 119 147 153 152 142 159 152 158 166 178 193 196 193 178 174
13 15 18 17 16 13 14 12 10 11 10 8 6 355 359 9 13 15 22 36 54 53 53 47 38 37 65 69 50 54 67 86 122 122 90 105 140 135 151 162 178 186 178 187 189 175 186
8 10 16 15 15 12 11 11 8 9 11 8 8 7 5 2 12 23 31 45 56 50 47 47 59 45 45 67 58 82 68 85 113 102 105 89 131 111 129 125 168 172 175 179 196 187 192
2 4 9 11 12 13 10 9 9 8 9 10 10 10 20 18 20 32 44 49 54 48 44 47 59 40 44 54 58 86 98 100 111 102 109 116 132 136 167 200 176 182 162 196 186 194 183
352 357 360 6 7 10 10 8 10 8 8 10 11 14 21 36 39 48 52 64 49 39 43 38 50 61 59 60 63 82 68 109 91 115 127 127 141 149 163 163 173 191 199 187 188 182 182
342 351 352 357 1 5 6 8 7 8 7 10 11 16 19 32 41 50 50 55 48 34 42 34 33 33 54 68 47 59 73 119 99 87 92 112 129 143 88 165 149 131 170 179 183 169 170
334 344 347 349 353 358 360 6 7 4 7 9 11 15 21 28 38 39 42 43 55 49 39 9 20 24 42 43 52 46 76 81 74 93 125 114 135 131 130 123 179 137 154 166 173 167 182
328 336 341 344 346 350 355 359 6 2 3 6 11 11 19 23 35 26 22 24 35 53 29 28 37 34 42 48 42 53 80 86 93 96 93 93 97 104 93 144 127 139 134 149 165 178 200
322 327 333 338 339 342 347 352 1 1 360 5 6 7 13 19 30 25 21 21 23 47 63 32 35 37 33 41 51 62 73 108 108 97 94 93 97 98 114 116 121 135 133 133 117 209 202
314 321 325 330 334 334 338 344 354 358 356 360 358 2 9 11 18 19 22 15 58 77 78 45 46 39 31 42 44 60 57 93 132 136 110 120 67 99 90 115 120 123 175 205 168 173 206
309 313 318 322 325 327 328 334 347 353 352 355 355 354 2 356 10 3 14 19 95 121 81 5 51 46 16 41 58 49 65 47 55 151 136 139 114 103 88 94 140 167 155 116 116 103 112
301 305 309 313 317 320 321 323 335 345 350 347 351 350 351 1 5 0 4 58 116 100 47 41 72 45 25 36 39 82 61 43 53 48 80 96 109 114 120 123 119 166 123 74 66 106 80
287 296 302 306 309 311 314 313 320 332 343 343 345 347 351 351 356 0 12 74 84 87 65 40 47 78 63 43 48 40 50 71 69 79 75 72 90 131 137 138 133 130 116 72 86 65 138
278 283 289 297 303 303 305 307 304 316 330 337 339 338 342 345 350 346 3 28 59 91 85 76 55 50 56 91 69 79 72 81 81 100 95 93 107 120 121 106 111 109 96 64 33 66 67
271 277 281 287 293 296 296 299 295 296 310 321 325 323 321 331 339 337 348 7 24 35 62 82 101 67 67 62 76 48 55 48 47 59 60 127 146 142 121 96 102 83 31 248 226 182 118
266 270 274 281 285 287 287 288 289 285 290 302 310 307 309 309 320 325 318 320 336 349 21 21 48 54 48 60 71 58 40 28 45 53 64 83 163 127 138 144 203 221 240 224 229 203 184
261 263 268 272 276 280 281 280 280 277 274 281 288 290 285 290 294 296 297 299 301 303 296 278 311 343 358 359 352 20 11 11 14 34 21 8 223 321 293 282 284 281 279 272 258 250 245
257 259 261 264 269 273 275 274 273 270 266 267 272 277 275 272 279 277 274 281 282 279 281 282 278 305 316 324 322 332 338 348 23 338 335 341 308 320 318 292 299 301 294 276 265 261 264
254 256 258 259 261 267 268 269 266 264 266 265 262 265 264 269 268 271 270 269 268 263 271 275 262 280 292 297 297 306 308 309 307 311 314 316 315 323 292 321 322 307 9 340 264 256 259
247 251 254 257 259 260 264 262 262 260 258 259 259 261 259 261 263 266 272 272 268 264 262 266 264 269 275 281 288 291 289 288 290 292 290 284 284 295 301 321 355 295 296 307 304 285 287
245 247 249 253 256 258 259 259 256 255 252 254 256 256 259 260 260 263 266 268 268 263 262 264 267 268 272 279 290 290 285 287 283 289 277 268 270 263 295 274 282 280 281 296 293 283 278
243 244 245 247 251 254 256 255 253 252 249 247 250 252 253 255 259 262 262 263 263 263 263 264 261 263 270 276 274 254 254 282 267 281 289 275 243 234 222 228 239 251 254 279 289 287 277
239 241 242 244 246 248 249 250 249 248 248 245 246 247 249 253 256 260 263 265 264 262 260 260 260 266 270 270 269 262 258 246 247 237 258 268 253 238 237 236 258 257 262 270 260 270 270
236 237 239 240 242 244 245 245 244 244 245 246 244 245 246 249 254 258 262 264 264 259 260 265 265 260 262 262 258 252 234 227 237 234 239 246 244 228 238 230 259 250 265 264 277 280 277
234 235 235 237 237 237 239 240 240 241 243 242 242 243 244 245 246 255 260 263 259 255 253 256 260 266 261 254 239 229 227 230 236 243 251 248 244 255 241 245 272 280 280 284 288 293 294
Height
3156 3154 3151 3147 3144 3140 3136 3132 3128 3124 3121 3118 3115 3111 3107 3102 3097 3091 3085 3081 3077 3074 3074 3072 3070 3068 3066 3064 3062 3061 3061 3061 3063 3065 3068 3072 3075 3079 3084 3088 3097 3100 3105 3116 3120 3122 3128
3158 3155 3152 3149 3145 3141 3137 3133 3129 3125 3121 3118 3116 3113 3109 3104 3099 3094 3089 3084 3080 3077 3076 3074 3071 3070 3068 3065 3062 3059 3058 3060 3061 3064 3067 3070 3074 3079 3084 3088 3093 3098 3108 3114 3117 3121 3124
3159 3156 3153 3150 3146 3142 3138 3134 3130 3126 3122 3118 3116 3114 3111 3107 3102 3097 3092 3087 3084 3081 3078 3075 3073 3072 3069 3067 3061 3059 3058 3059 3060 3063 3065 3069 3073 3079 3081 3085 3094 3103 3110 3112 3115 3119 3123
3159 3157 3154 3151 3147 3143 3139 3135 3131 3126 3122 3118 3115 3113 3111 3108 3104 3100 3095 3091 3087 3083 3080 3077 3074 3072 3070 3066 3061 3060 3060 3059 3059 3062 3066 3069 3073 3079 3080 3084 3095 3102 3109 3111 3114 3117 3121
3160 3158 3155 3151 3148 3144 3140 3136 3132 3127 3123 3119 3115 3112 3111 3109 3106 3102 3099 3094 3090 3086 3084 3079 3076 3074 3071 3066 3064 3062 3060 3057 3060 3063 3065 3068 3075 3080 3082 3088 3094 3100 3103 3109 3113 3115 3118
3160 3158 3155 3152 3149 3144 3141 3137 3133 3128 3123 3119 3116 3112 3110 3108 3106 3104 3101 3098 3094 3092 3087 3083 3079 3081 3077 3073 3070 3066 3066 3065 3067 3067 3069 3072 3079 3081 3085 3090 3093 3097 3100 3106 3111 3117 3122
3161 3158 3156 3153 3149 3146 3141 3138 3134 3129 3124 3120 3116 3113 3110 3108 3106 3105 3103 3101 3100 3096 3089 3088 3088 3084 3083 3081 3076 3075 3074 3073 3073 3076 3079 3079 3082 3085 3089 3093 3098 3101 3103 3106 3110 3115 3121
3161 3158 3156 3153 3150 3146 3142 3139 3135 3131 3126 3121 3117 3114 3111 3108 3106 3105 3104 3102 3099 3098 3094 3092 3093 3090 3087 3087 3085 3081 3081 3081 3078 3079 3084 3085 3088 3091 3094 3096 3099 3102 3105 3109 3111 3116 3121
3161 3158 3155 3153 3150 3146 3143 3139 3136 3131 3127 3123 3119 3115 3112 3110 3107 3106 3104 3103 3101 3099 3097 3097 3095 3093 3092 3091 3089 3088 3087 3085 3085 3085 3085 3088 3091 3093 3095 3096 3098 3100 3103 3107 3111 3116 3122
3161 3158 3156 3153 3150 3147 3143 3140 3136 3132 3128 3124 3120 3116 3113 3111 3110 3107 3106 3104 3102 3101 3101 3102 3098 3096 3094 3092 3091 3090 3091 3093 3090 3090 3091 3093 3094 3095 3095 3096 3099 3101 3102 3107 3111 3116 3120
3160 3158 3155 3153 3150 3147 3144 3141 3137 3133 3129 3125 3121 3117 3114 3110 3109 3108 3108 3105 3103 3102 3105 3105 3102 3100 3097 3096 3095 3093 3093 3093 3092 3092 3095 3096 3096 3097 3098 3098 3100 3102 3104 3107 3113 3117 3120
3158 3156 3154 3152 3149 3147 3144 3141 3138 3134 3130 3126 3122 3118 3115 3112 3110 3109 3107 3106 3105 3106 3107 3107 3104 3102 3100 3097 3097 3096 3095 3095 3095 3095 3096 3097 3097 3098 3098 3102 3101 3103 3104 3108 3115 3118 3119
3156 3155 3153 3150 3148 3146 3144 3141 3138 3134 3131 3127 3123 3119 3116 3113 3111 3109 3107 3107 3107 3105 3111 3110 3106 3103 3100 3100 3098 3097 3097 3097 3098 3100 3099 3099 3099 3098 3101 3101 3103 3103 3106 3113 3120 3120 3117
3154 3153 3152 3149 3147 3145 3143 3140 3138 3135 3131 3128 3124 3120 3117 3115 3112 3109 3109 3109 3108 3109 3108 3109 3107 3105 3103 3102 3101 3100 3099 3099 3099 3100 3101 3101 3102 3101 3101 3102 3102 3105 3109 3109 3114 3116 3112
3151 3150 3149 3148 3146 3144 3142 3139 3137 3135 3132 3128 3126 3122 3119 3117 3114 3111 3110 3109 3108 3109 3109 3108 3107 3105 3104 3103 3104 3103 3102 3102 3101 3100 3102 3102 3103 3102 3102 3103 3106 3108 3109 3109 3107 3108 3109
3150 3148 3146 3145 3144 3142 3140 3138 3136 3134 3131 3129 3126 3123 3121 3118 3115 3113 3112 3110 3108 3108 3108 3108 3107 3107 3105 3104 3103 3102 3102 3102 3102 3101 3101 3101 3102 3102 3103 3105 3108 3108 3109 3108 3106 3110 3114
3146 3146 3143 3142 3141 3140 3138 3136 3135 3133 3130 3128 3126 3124 3121 3119 3117 3115 3113 3111 3111 3110 3109 3110 3108 3107 3106 3104 3104 3103 3104 3103 3102 3103 3102 3102 3103 3107 3107 3108 3107 3108 3106 3106 3107 3108 3111
3141 3141 3140 3138 3137 3137 3135 3134 3133 3132 3130 3128 3126 3124 3121 3119 3119 3116 3114 3112 3112 3111 3110 3109 3109 3109 3107 3106 3105 3104 3104 3103 3103 3102 3102 3103 3104 3106 3107 3107 3106 3106 3106 3107 3108 3112 3112
3134 3135 3136 3134 3132 3133 3132 3131 3130 3129 3128 3127 3125 3123 3122 3119 3118 3118 3116 3115 3113 3112 3111 3110 3109 3109 3108 3107 3107 3106 3105 3105 3104 3104 3103 3103 3103 3104 3106 3109 3107 3106 3107 3108 3109 3111 3113
3128 3128 3130 3130 3128 3128 3127 3127 3126 3126 3125 3125 3124 3122 3121 3119 3117 3117 3116 3115 3114 3113 3112 3111 3111 3109 3109 3107 3107 3107 3106 3105 3105 3104 3103 3103 3103 3102 3103 3103 3104 3104 3104 3105 3107 3109 3110
3119 3120 3121 3123 3124 3122 3122 3122 3122 3122 3122 3123 3121 3119 3119 3118 3117 3115 3115 3115 3114 3113 3113 3111 3111 3110 3109 3108 3107 3106 3106 3105 3104 3104 3104 3104 3102 3102 3102 3101 3102 3102 3103 3103 3103 3106 3106
3108 3112 3113 3114 3116 3116 3116 3116 3116 3117 3117 3118 3118 3117 3115 3115 3114 3114 3113 3112 3112 3112 3112 3111 3111 3109 3109 3109 3108 3106 3105 3104 3104 3103 3103 3102 3101 3100 3099 3098 3098 3097 3098 3098 3099 3100 3100
3097 3100 3104 3105 3107 3109 3109 3111 3111 3111 3112 3112 3113 3113 3112 3111 3110 3111 3111 3110 3109 3109 3110 3110 3109 3109 3108 3108 3107 3106 3105 3104 3103 3102 3101 3100 3100 3098 3095 3095 3094 3095 3094 3093 3093 3095 3096
3082 3087 3092 3095 3097 3099 3101 3102 3104 3105 3105 3106 3106 3107 3108 3106 3106 3106 3106 3106 3107 3107 3106 3106 3106 3107 3107 3106 3106 3105 3103 3102 3101 3100 3099 3098 3099 3098 3096 3095 3097 3093 3092 3092 3093 3094 3094
3067 3073 3078 3083 3087 3089 3092 3093 3095 3097 3097 3098 3099 3101 3101 3101 3100 3101 3101 3102 3102 3102 3102 3103 3103 3103 3103 3103 3103 3101 3100 3099 3097 3096 3096 3096 3097 3098 3098 3098 3095 3092 3091 3091 3090 3091 3090
3050 3057 3064 3069 3074 3077 3081 3084 3085 3087 3089 3090 3092 3092 3094 3095 3095 3095 3096 3097 3097 3096 3098 3098 3098 3098 3099 3099 3099 3097 3097 3097 3095 3094 3093 3094 3095 3098 3097 3098 3095 3089 3088 3087 3087 3087 3086
3032 3040 3048 3054 3059 3064 3068 3072 3074 3077 3080 3081 3083 3084 3085 3086 3088 3088 3090 3091 3091 3091 3092 3092 3093 3094 3094 3094 3094 3094 3093 3093 3093 3091 3091 3091 3091 3093 3093 3093 3087 3084 3084 3084 3085 3085 3081
3014 3022 3030 3038 3045 3051 3055 3059 3063 3066 3069 3072 3074 3076 3077 3078 3079 3081 3083 3084 3084 3085 3086 3086 3087 3087 3087 3088 3088 3088 3087 3087 3087 3086 3088 3090 3090 3090 3090 3089 3083 3079 3079 3082 3079 3076 3076
2997 3005 3013 3021 3028 3035 3042 3047 3051 3055 3058 3061 3065 3067 3068 3071 3072 3072 3074 3077 3077 3078 3079 3079 3080 3081 3081 3081 3081 3081 3081 3081 3082 3083 3083 3085 3085 3086 3086 3081 3078 3075 3073 3073 3071 3070 3067